FW9486 Weather Reports


time (UTC)temp
C
wind
direction
speed
KPH
gust
KPH
rain 1hr
cm
rain 24hr
cm
rain mn
cm
humidity
%
barometer
mb
20260505153035 13 120 1.6 4.8 0.00 0.00 0.00 62 1008.2
20260505151536 12 125 1.6 4.8 0.00 0.00 0.00 65 1008.2
20260505124546 5 0 0.0 3.2 0.00 0.00 0.00 85 1007.1
20260505123039 5 0 0.0 1.6 0.00 0.00 0.00 85 1007.0
20260505121536 5 0 0.0 3.2 0.00 0.00 0.00 83 1006.8
20260505120038 7 0 0.0 1.6 0.00 0.00 0.00 76 1006.7
20260505114535 7 55 0.0 0.0 0.00 0.00 0.00 77 1006.6
20260505113035 7 0 0.0 1.6 0.00 0.00 0.00 78 1006.6
20260505111538 6 0 0.0 0.0 0.00 0.00 0.00 80 1006.4
20260505101536 7 0 0.0 3.2 0.00 0.00 0.00 75 1006.1
20260505100038 8 0 1.6 6.4 0.00 0.00 0.00 72 1005.9
20260505094541 7 0 0.0 1.6 0.00 0.00 0.00 73 1006.1
20260505093039 7 0 0.0 0.0 0.00 0.00 0.00 71 1006.1
20260505091543 8 25 0.0 1.6 0.00 0.00 0.00 70 1005.8
20260505090034 8 40 1.6 3.2 0.00 0.00 0.00 69 1006.0
20260505084538 7 0 0.0 3.2 0.00 0.00 0.00 72 1005.8
20260505083040 8 76 0.0 3.2 0.00 0.00 0.00 69 1005.9
20260505081539 10 0 0.0 3.2 0.00 0.00 0.00 61 1005.8
20260505080035 9 1 0.0 3.2 0.00 0.00 0.00 66 1005.9
20260505074537 11 72 1.6 6.4 0.00 0.00 0.00 58 1005.9
20260505073035 12 15 0.0 1.6 0.00 0.00 0.00 53 1005.8
20260505071550 13 15 0.0 3.2 0.00 0.00 0.00 51 1005.7
20260505070046 13 15 0.0 1.6 0.00 0.00 0.00 51 1005.7
20260505064535 13 0 0.0 1.6 0.00 0.00 0.00 50 1005.6
20260505063047 12 357 0.0 3.2 0.00 0.00 0.00 51 1005.6
20260505061603 12 0 0.0 3.2 0.00 0.00 0.00 52 1005.6
20260505060033 13 69 1.6 11.3 0.00 0.00 0.00 50 1005.5
20260505054541 13 21 1.6 3.2 0.00 0.00 0.00 49 1005.4
20260505053041 13 11 1.6 3.2 0.00 0.00 0.00 50 1005.5
20260505051556 13 0 0.0 3.2 0.00 0.00 0.00 48 1005.4
20260505041537 16 0 0.0 11.3 0.00 0.00 0.00 39 1005.1
20260505040039 16 218 0.0 11.3 0.00 0.00 0.00 38 1004.9
20260505034536 17 1 3.2 14.5 0.00 0.00 0.00 37 1004.7
20260505033037 17 30 4.8 19.3 0.00 0.00 0.00 37 1004.5
20260505031530 17 316 1.6 12.9 0.00 0.00 0.00 37 1004.3
20260505030037 17 345 4.8 12.9 0.00 0.00 0.00 35 1004.2
20260505024541 18 23 3.2 16.1 0.00 0.00 0.00 34 1003.9
20260505023035 18 58 4.8 11.3 0.00 0.00 0.00 33 1003.7
20260505021537 18 27 4.8 12.9 0.00 0.00 0.00 32 1003.7
20260505020037 19 26 3.2 12.9 0.00 0.00 0.00 31 1003.7
20260505014537 20 37 4.8 12.9 0.00 0.00 0.00 28 1003.8
20260505013036 20 345 6.4 14.5 0.00 0.00 0.00 27 1003.8
20260505011534 20 45 1.6 12.9 0.00 0.00 0.00 26 1003.9
20260505010038 21 25 3.2 9.7 0.00 0.00 0.00 25 1003.8
20260505004536 22 205 6.4 17.7 0.00 0.00 0.00 26 1003.8
20260505003035 22 75 3.2 19.3 0.00 0.00 0.00 25 1003.7
20260505001535 23 67 4.8 11.3 0.00 0.00 0.00 24 1003.7
20260505000043 23 22 3.2 14.5 0.00 0.00 0.00 23 1003.6
20260504234535 23 1 3.2 17.7 0.00 0.00 0.00 25 1003.7
20260504233042 23 276 4.8 14.5 0.00 0.00 0.00 28 1003.9
20260504231542 23 188 4.8 14.5 0.00 0.00 0.00 26 1004.2
20260504230046 23 86 4.8 12.9 0.00 0.00 0.00 23 1004.2
20260504224534 23 161 4.8 20.9 0.00 0.00 0.00 27 1004.1
20260504223038 23 352 4.8 17.7 0.00 0.00 0.00 24 1004.3
20260504221535 23 108 4.8 17.7 0.00 0.00 0.00 24 1004.4
20260504220038 23 36 6.4 14.5 0.00 0.00 0.00 23 1004.5
20260504214535 23 64 1.6 11.3 0.00 0.00 0.00 25 1004.6
20260504213035 23 290 1.6 9.7 0.00 0.00 0.00 27 1004.7
20260504211537 23 142 4.8 14.5 0.00 0.00 0.00 25 1004.9
20260504210044 23 37 6.4 20.9 0.00 0.00 0.00 26 1005.0
20260504204538 23 55 3.2 17.7 0.00 0.00 0.00 28 1004.9
20260504203050 23 160 3.2 16.1 0.00 0.00 0.00 25 1004.9
20260504201535 23 114 3.2 14.5 0.00 0.00 0.00 25 1005.2
20260504200035 23 52 3.2 19.3 0.00 0.00 0.00 24 1005.2
20260504194537 23 71 1.6 12.9 0.00 0.00 0.00 27 1005.3
20260504193035 22 155 4.8 12.9 0.00 0.00 0.00 26 1005.4
20260504191536 22 117 3.2 17.7 0.00 0.00 0.00 29 1005.5
20260504190047 22 12 8.0 17.7 0.00 0.00 0.00 29 1005.5
20260504184535 22 304 3.2 17.7 0.00 0.00 0.00 30 1005.9
20260504183037 22 335 4.8 14.5 0.00 0.00 0.00 29 1005.9
20260504181541 21 21 4.8 9.7 0.00 0.00 0.00 30 1006.1
20260504180036 21 92 3.2 17.7 0.00 0.00 0.00 30 1006.2
20260504174536 21 39 4.8 14.5 0.00 0.00 0.00 30 1006.3
20260504173037 18 245 3.2 6.4 0.00 0.00 0.00 44 1006.5
20260504171539 17 135 1.6 6.4 0.00 0.00 0.00 53 1006.6